Beijing Daxing International Airport

Airport
ICAO code: 
ZBAD
IATA Code: 
PKX
Summary
ICAO Region: 
APAC
Territory: 
Location: 
Tanchengcun, Beijing
Serving: 
Beijing
Elevation: 
98 ft
Coordinates: 
Aerial View: 
39° 30' 33.012" N, 116° 24' 38.016" E
Metar
Observation
ZBAD 021930Z 19002MPS CAVOK M00/M10 Q1021 NOSIG
Station
Beijing Daxing International Airport
Date/Time
2021-12-02 19:30:00
Wind direction
190°
Lowest cloud amount
clouds and visibility OK
Temperature
-0°C
Dew point
-10°C
Humidity
46%
QNH
1021 hPa
Weather condition
n/a

Beijing Daxing International Airport, located on the border of Beijing and Langfang, Hebei Province, is Beijing's second international airport.

Climatology

Humid continental climate (Köppen climate classification Dwa).

Airport map: 
Aerial View: 

SKYbrary Partners:

Safety knowledge contributed by: